Location: The Saddle
(36.8333°N, 80.3417°W)
Time: 23:10:28
(UTC-04:00)

Vanguard 3 - Pass Details

Date: 22 January 2022
Orbit: 508 x 3258 km, 33.3° (Epoch: 19 May)

Event Time Altitude Azimuth Distance (km) Brightness Sun altitude
Rises 09:07:29 0° 190° (S) 6,696 12.3 15.6°
Reaches altitude 10° 09:18:28 10° 157° (SSE) 4,849 12.5 17.3°
Maximum altitude 09:20:16 10° 149° (SSE) 4,651 12.8 17.6°
Drops below altitude 10° 09:21:59 10° 141° (SE) 4,512 13.2 17.8°
Sets 09:29:34 0° 105° (ESE) 4,671 12.1 18.9°
